Cotulla, TX

11:30 AM CST on November 13, 2019 (GMT -0600)
Cotulla-La Salle County

Weather History for KCOT - August, 2019

Change the Weather History Date:

Saturday, August 24, 2019

  Actual Average Record
Temperature  
Mean Temperature 90 °F -  
Max Temperature 100 °F 94 °F 107 °F (2010)
Min Temperature 80 °F 73 °F 73 °F (1997)
Cooling Degree Days 25    
Growing Degree Days 40 (Base 50)    
Moisture  
Dew Point 71 °F    
Average Humidity 62    
Maximum Humidity 85    
Minimum Humidity 32    
Precipitation  
Precipitation 0.01 in - - ()
Sea Level Pressure  
Sea Level Pressure 29.86 in    
Wind  
Wind Speed 6 mph ()    
Max Wind Speed 20 mph    
Max Gust Speed 25 mph    
Visibility 9.9 miles    
Events Rain    
Averages and records for this station are not official NWS values.
T = Trace of Precipitation, MM = Missing Value Source: Averaged Metar Reports

Daily Weather History Graph

Daily Weather History Graph

Search for Another Location

Airport or City:

Astronomy

Aug. 24, 2019 Rise Set
Actual Time 7:11 AM CDT 8:07 PM CDT
Civil Twilight 6:46 AM CDT 8:31 PM CDT
Nautical Twilight 6:18 AM CDT 8:59 PM CDT
Astronomical Twilight 5:48 AM CDT 9:29 PM CDT
Moon 1:15 AM CDT (8/24) 3:11 PM CDT (8/24)
Length of Visible Light 13h 44m
Length of Day
12h 56m
Last Quarter, 39% of the Moon is Illuminated
Aug 24
Last Quarter
Aug 30
New
Sep 5
First Quarter
Sep 13
Full
Sep 21
Last Quarter

Hourly Weather History & Observations

Time (CDT) Temp. Heat Index Dew Point Humidity Pressure Visibility Wind Dir Wind Speed Gust Speed Precip Events Conditions
12:53 AM 82.9 °F 86.5 °F 69.1 °F 63% 29.89 in 10.0 mi WSW 6.9 mph - N/A   Overcast
1:18 AM 81.0 °F 84.9 °F 71.1 °F 72% 29.93 in 10.0 mi SW 12.7 mph 19.6 mph N/A   Mostly Cloudy
1:53 AM 80.1 °F 83.8 °F 72.0 °F 76% 29.89 in 10.0 mi Variable 4.6 mph - 0.00 in Rain Light Rain
2:53 AM 80.1 °F 83.2 °F 70.0 °F 71% 29.86 in 10.0 mi SW 4.6 mph - 0.00 in   Clear
3:53 AM 80.1 °F 82.9 °F 69.1 °F 69% 29.85 in 10.0 mi NE 3.5 mph - N/A   Clear
4:53 AM 81.0 °F 84.1 °F 69.1 °F 67% 29.86 in 10.0 mi Calm Calm - N/A   Clear
5:53 AM 80.1 °F 83.8 °F 72.0 °F 76% 29.86 in 10.0 mi North 3.5 mph - N/A   Mostly Cloudy
6:53 AM 80.1 °F 83.6 °F 71.1 °F 74% 29.88 in 10.0 mi Calm Calm - N/A   Partly Cloudy
7:53 AM 81.0 °F 84.9 °F 71.1 °F 72% 29.88 in 10.0 mi NE 4.6 mph - N/A   Clear
8:53 AM 82.9 °F 88.0 °F 72.0 °F 69% 29.88 in 10.0 mi Variable 4.6 mph - N/A   Clear
9:53 AM 86.0 °F 92.2 °F 72.0 °F 63% 29.89 in 10.0 mi East 5.8 mph - N/A   Mostly Cloudy
10:53 AM 88.0 °F 94.7 °F 72.0 °F 59% 29.88 in 10.0 mi ENE 4.6 mph - N/A   Clear
11:53 AM 91.9 °F 98.4 °F 71.1 °F 50% 29.88 in 10.0 mi North - - N/A   Scattered Clouds
12:53 PM 93.9 °F 100.3 °F 70.0 °F 46% 29.86 in 10.0 mi Variable 4.6 mph - N/A   Partly Cloudy
1:53 PM 98.1 °F 104.4 °F 69.1 °F 39% 29.84 in 10.0 mi ENE 5.8 mph - N/A   Scattered Clouds
2:53 PM 97.0 °F 102.2 °F 68.0 °F 39% 29.81 in 10.0 mi SE 19.6 mph 25.3 mph N/A   Partly Cloudy
3:53 PM 100.0 °F 103.6 °F 64.9 °F 32% 29.77 in 10.0 mi SE 12.7 mph - N/A   Clear
4:53 PM 98.1 °F 103.0 °F 68.0 °F 37% 29.78 in 10.0 mi SE 17.3 mph - N/A   Clear
5:53 PM 98.1 °F 102.4 °F 66.9 °F 36% 29.78 in 10.0 mi SE 19.6 mph - N/A   Clear
6:53 PM 91.0 °F 96.6 °F 70.0 °F 50% 29.81 in 10.0 mi ESE 17.3 mph - N/A   Clear
7:53 PM 89.1 °F 96.0 °F 72.0 °F 57% 29.81 in 10.0 mi SE 11.5 mph - 0.00 in   Partly Cloudy
8:53 PM 82.9 °F 92.8 °F 78.1 °F 85% 29.84 in 10.0 mi ESE 8.1 mph - 0.01 in Rain Light Rain
9:53 PM 82.9 °F 90.8 °F 75.9 °F 79% 29.88 in 10.0 mi East 5.8 mph - 0.00 in   Mostly Cloudy
10:53 PM 84.0 °F 92.6 °F 75.9 °F 76% 29.91 in 10.0 mi SE 6.9 mph - N/A   Scattered Clouds
11:53 PM 82.9 °F 91.8 °F 77.0 °F 82% 29.88 in 8.0 mi ESE 5.8 mph - 0.00 in   Clear